Welcome to the New NWS' Forecast!
Most changes are behind the scenes, but click here for differences you might notice.

Regional Weather Roundup (RWR)

Issued by National Weather Service (NWS)

                            
690 
ASUS46 KSEW 141710
RWRWA 

WASHINGTON REGIONAL WEATHER ROUNDUP
NATIONAL WEATHER SERVICE SEATTLE WA
1000 AM PDT SAT JUL 14 2018

NOTE:"FAIR" INDICATES FEW OR NO CLOUDS BELOW 12,000 FEET WITH NO 
SIGNIFICANT WEATHER AND/OR OBSTRUCTIONS TO VISIBILITY.

WAZ507-509-555>559-141800-
SEATTLE, TACOMA, EVERETT, AND VICINITY
  
CITY           SKY/WX    TMP DP  RH WIND       PRES   REMARKS
EVERETT        SUNNY     66  53  63 NW8       30.17S                  
BOEING FIELD   SUNNY     71  51  49 VRB7      30.14F                  
RENTON         SUNNY     71  52  50 NW9       30.13F                  
SEATAC AIRPORT SUNNY     69  53  56 W6        30.15F                  
JBLM-MCCHORD   SUNNY     70  55  59 NE6       30.15F                  
PUYALLUP       FAIR      70  55  60 CALM      30.15F                  
BREMERTON      SUNNY     70  52  52 NE9       30.16S                  
JBLM-FT LEWIS  SUNNY     69  56  63 N5        30.14F                  
TACOMA NARROWS SUNNY     68  51  54 N6        30.15F                  
$$
 
WAZ001-503-506-510-514-515-141800-
NORTH INTERIOR
  
CITY           SKY/WX    TMP DP  RH WIND       PRES   REMARKS
BELLINGHAM     SUNNY     72  53  51 VRB3      30.16S                  
FRIDAY HARBOR  SUNNY     70  51  51 N13       30.18S                  
EASTSOUND      SUNNY     63  57  82 N7        30.18R                  
PORT ANGELES   SUNNY     69  48  47 E9        30.19R                  
EDIZ HOOK      FAIR      65  50  58 CALM      30.18S                  
PORT TOWNSEND  FAIR      68  52  56 NW8       30.17S                  
NAS WHIDBEY    SUNNY     65  52  62 W7        30.20F                  
ARLINGTON      SUNNY     69  54  58 W5        30.16F                  
BURLINGTON     SUNNY     68  57  68 W7        30.16S                  
$$
 
WAZ020-022-039-040-504-511-512-141800-
SOUTHWEST INTERIOR
  
CITY           SKY/WX    TMP DP  RH WIND       PRES   REMARKS
SHELTON        SUNNY     71  52  50 VRB6      30.13S                  
OLYMPIA        SUNNY     68  51  54 N3        30.15S                  
CHEHALIS       FAIR      68  55  64 NE6       30.15S                  
KELSO          SUNNY     66  52  60 VRB6      30.15S                  
VANCOUVER      SUNNY     68  55  63 W6        30.12F                  
SCAPPOOSE, OR  SUNNY     70  52  52 NE8       30.11F                  
PORTLAND, OR   SUNNY     68  54  60 W8        30.12F                  
$$
 
WAZ021-516-517-141800-
WASHINGTON COAST
  
CITY           SKY/WX    TMP DP  RH WIND       PRES   REMARKS
FORKS          SUNNY     67  55  65 VRB3      30.15S                  
HOQUIAM        SUNNY     62  56  80 S3        30.16S                  
ASTORIA, OR    SUNNY     66  57  72 N5        30.14F                  
$$
 
WAZ019-023-024-040-567>569-141800-
CASCADE MOUNTAINS AND COLUMBIA GORGE
  
CITY           SKY/WX    TMP DP  RH WIND       PRES   REMARKS
STAMPEDE PASS  SUNNY     71  49  45 VRB5      30.23F                  
TROUTDALE, OR  SUNNY     69  54  58 CALM      30.12S                  
HOOD RIVER, OR SUNNY     77  52  41 CALM      30.10S                  
THE DALLES, OR SUNNY     81  52  36 N8        30.07S                  
$$

WAZ026-027-041>044-520-521-141800-
EAST SLOPES
  
CITY           SKY/WX    TMP DP  RH WIND       PRES   REMARKS
OMAK           SUNNY     79  31  17 N22G31    30.17S                  
WENATCHEE      SUNNY     79  44  28 W7        30.13S                  
ELLENSBURG     SUNNY     79  48  33 W7        30.14S                  
YAKIMA         SUNNY     85  43  22 N9        30.12S                  
SUNNYSIDE ARPT SUNNY     82  49  32 N13G18    30.09S                  
YAKIMA TC        N/A     83  37  19 E17G24    30.11R                  
$$

WAZ028-034-035-141800-
COLUMBIA BASIN
  
CITY           SKY/WX    TMP DP  RH WIND       PRES   REMARKS
EPHRATA        MOSUNNY   82  32  16 N26G37    30.13R                  
MOSES LAKE     SUNNY     82  36  19 N21G29    30.11S                  
PASCO          SUNNY     84  52  33 N16       30.08S                  
RICHLAND ARPT  SUNNY     87  46  23 N12G20    30.08S                  
HERMISTON, OR  SUNNY     85  51  31 N3        30.08S                  
$$

WAZ036>038-141800-
NORTHEAST WASHINGTON
  
CITY           SKY/WX    TMP DP  RH WIND       PRES   REMARKS
SPOKANE GEIGER MOSUNNY   79  39  23 N9        30.10S                  
SPOKANE FELTS  SUNNY     81  43  26 NW5G14    30.09R                  
FAIRCHILD AFB  SUNNY     78  38  23 N10       30.11S                  
COEURDALENE,ID SUNNY     76  48  37 S8        30.10S                  
DEER PARK      SUNNY     79  39  23 NW14      30.09S                  
$$

WAZ029>033-141800-
SOUTHEAST WASHINGTON
  
CITY           SKY/WX    TMP DP  RH WIND       PRES   REMARKS
PULLMAN        SUNNY     76  48  37 VRB6      30.14R                  
LEWISTON, ID   SUNNY     85  49  28 NE6       30.07S                  
WALLA WALLA    SUNNY     81  47  30 SW8       30.09S                  
PENDLETON, OR  SUNNY     82  46  28 NW7       30.10F                  
$$